Tracking 19832 objects as of 25-Aug-2019
HD Live streaming from Space Station
objects crossing your sky now

FENGYUN 1C DEB

Track FENGYUN 1C DEB now!
10-day predictions


NORAD ID: 30448
Int'l Code: 1999-025AFK
Perigee: 823.5 km
Apogee: 860.0 km
Inclination: 99.0 °
Period: 101.6 minutes
Semi major axis: 7212 km
RCS: 0.055 m2 (small)
Launch date: May 10, 1999
Source: People's Republic of China (PRC)
Launch site: Taiyaun Space Center, China (TSC)

Note: This is SATELLITE DEBRIS
aabbcc
Your satellite tracking list
Your tracking list is empty




NASA's NSSDC Master Catalog

Two Line Element Set (TLE):
1 30448U 99025AFK 19235.84852292 +.00000416 +00000-0 +22759-3 0  9993
2 30448 098.9756 275.3537 0025320 153.3340 257.3421 14.17268106646048
Source of the keplerian elements: AFSPC